| time (UTC) | temp F | wind direction | speed knots | gust knots | rain 1hr in | rain 24hr in | rain mn in | humidity % | barometer mb |
| 20260906123347 | 76 | 150 | 0.0 | 0.0 | 0.00 | 0.00 | 0.00 | 80 | 1014.9 |
| 20260906122846 | 76 | 159 | 0.0 | 0.0 | 0.00 | 0.00 | 0.00 | 82 | 1014.9 |
| 20260906122341 | 76 | 142 | 0.9 | 0.9 | 0.00 | 0.00 | 0.00 | 82 | 1014.8 |
| 20260906121838 | 75 | 155 | 0.9 | 0.9 | 0.00 | 0.00 | 0.00 | 83 | 1014.7 |
| 20260906121334 | 75 | 155 | 0.0 | 0.0 | 0.00 | 0.00 | 0.00 | 82 | 1014.8 |
| 20260906120830 | 74 | 168 | 0.0 | 0.0 | 0.00 | 0.00 | 0.00 | 84 | 1014.7 |
| 20260906120326 | 73 | 167 | 0.0 | 0.0 | 0.00 | 0.00 | 0.00 | 87 | 1014.5 |
| 20260906115822 | 73 | 167 | 0.9 | 0.9 | 0.00 | 0.00 | 0.00 | 88 | 1014.5 |
| 20260906115317 | 73 | 162 | 0.9 | 0.9 | 0.00 | 0.00 | 0.00 | 87 | 1014.5 |
| 20260906114816 | 73 | 162 | 0.0 | 0.0 | 0.00 | 0.00 | 0.00 | 87 | 1014.4 |
| 20260906114311 | 73 | 162 | 0.0 | 0.0 | 0.00 | 0.00 | 0.00 | 87 | 1014.2 |
| 20260906113806 | 73 | 164 | 0.0 | 0.0 | 0.00 | 0.00 | 0.00 | 87 | 1014.1 |
| 20260906113306 | 72 | 168 | 0.0 | 0.0 | 0.00 | 0.00 | 0.00 | 88 | 1014.1 |
| 20260906112801 | 72 | 168 | 0.0 | 0.0 | 0.00 | 0.00 | 0.00 | 89 | 1014.1 |
| 20260906112257 | 72 | 168 | 0.0 | 0.0 | 0.00 | 0.00 | 0.00 | 89 | 1014.1 |
| 20260906111756 | 72 | 168 | 0.0 | 0.0 | 0.00 | 0.00 | 0.00 | 88 | 1014.0 |
| 20260906111255 | 72 | 168 | 0.0 | 0.0 | 0.00 | 0.00 | 0.00 | 88 | 1013.8 |
| 20260906110751 | 72 | 168 | 0.0 | 0.0 | 0.00 | 0.00 | 0.00 | 88 | 1013.8 |
| 20260906110247 | 72 | 168 | 0.0 | 0.0 | 0.00 | 0.00 | 0.00 | 88 | 1013.9 |
| 20260906105746 | 72 | 168 | 0.0 | 0.0 | 0.00 | 0.00 | 0.00 | 87 | 1013.8 |
| 20260906105242 | 73 | 169 | 0.0 | 0.0 | 0.00 | 0.00 | 0.00 | 87 | 1013.7 |
| 20260906104737 | 73 | 169 | 0.9 | 0.9 | 0.00 | 0.00 | 0.00 | 87 | 1013.7 |
| 20260906104236 | 73 | 168 | 0.0 | 0.0 | 0.00 | 0.00 | 0.00 | 86 | 1013.8 |
| 20260906103733 | 73 | 168 | 0.9 | 0.9 | 0.00 | 0.00 | 0.00 | 86 | 1013.6 |
| 20260906103228 | 73 | 169 | 0.0 | 0.0 | 0.00 | 0.00 | 0.00 | 85 | 1013.7 |
| 20260906102724 | 73 | 168 | 0.0 | 0.0 | 0.00 | 0.00 | 0.00 | 84 | 1013.7 |
| 20260906102223 | 74 | 169 | 0.0 | 0.0 | 0.00 | 0.00 | 0.00 | 84 | 1013.8 |
| 20260906101718 | 74 | 169 | 0.0 | 0.0 | 0.00 | 0.00 | 0.00 | 82 | 1013.7 |
| 20260906101213 | 75 | 169 | 0.0 | 0.0 | 0.00 | 0.00 | 0.00 | 81 | 1013.7 |
| 20260906100708 | 75 | 169 | 0.0 | 0.0 | 0.00 | 0.00 | 0.00 | 81 | 1013.7 |
| 20260906100208 | 74 | 171 | 0.0 | 0.0 | 0.00 | 0.00 | 0.00 | 82 | 1013.5 |
| 20260906095703 | 74 | 174 | 0.0 | 0.0 | 0.00 | 0.00 | 0.00 | 82 | 1013.7 |
| 20260906095159 | 74 | 174 | 0.0 | 0.0 | 0.00 | 0.00 | 0.00 | 82 | 1013.6 |
| 20260906094657 | 75 | 174 | 0.9 | 0.0 | 0.00 | 0.00 | 0.00 | 81 | 1013.7 |
| 20260906094153 | 75 | 174 | 0.0 | 0.0 | 0.00 | 0.00 | 0.00 | 80 | 1013.6 |
| 20260906093649 | 75 | 174 | 0.0 | 0.0 | 0.00 | 0.00 | 0.00 | 80 | 1013.5 |
| 20260906093149 | 75 | 174 | 0.0 | 0.0 | 0.00 | 0.00 | 0.00 | 80 | 1013.7 |
| 20260906092645 | 75 | 175 | 0.9 | 0.9 | 0.00 | 0.00 | 0.00 | 80 | 1013.6 |
| 20260906092144 | 75 | 173 | 0.0 | 0.0 | 0.00 | 0.00 | 0.00 | 81 | 1013.3 |
| 20260906091641 | 75 | 183 | 0.0 | 0.0 | 0.00 | 0.00 | 0.00 | 81 | 1013.5 |
| 20260906091138 | 75 | 183 | 0.9 | 0.9 | 0.00 | 0.00 | 0.00 | 80 | 1013.6 |
| 20260906090633 | 75 | 169 | 0.0 | 0.0 | 0.00 | 0.00 | 0.00 | 80 | 1013.5 |
| 20260906090132 | 76 | 167 | 0.9 | 0.9 | 0.00 | 0.00 | 0.00 | 79 | 1013.5 |
| 20260906085632 | 76 | 153 | 1.7 | 1.7 | 0.00 | 0.00 | 0.00 | 79 | 1013.6 |
| 20260906085132 | 76 | 193 | 0.9 | 0.9 | 0.00 | 0.00 | 0.00 | 79 | 1013.6 |
| 20260906084632 | 76 | 216 | 0.9 | 0.9 | 0.00 | 0.00 | 0.00 | 79 | 1013.6 |
| 20260906084131 | 76 | 222 | 1.7 | 1.7 | 0.00 | 0.00 | 0.00 | 79 | 1013.4 |
| 20260906083627 | 75 | 208 | 0.9 | 0.9 | 0.00 | 0.00 | 0.00 | 80 | 1013.5 |
| 20260906083127 | 75 | 211 | 1.7 | 1.7 | 0.00 | 0.00 | 0.00 | 81 | 1013.3 |
| 20260906082623 | 75 | 219 | 0.0 | 0.0 | 0.00 | 0.00 | 0.00 | 81 | 1013.5 |
| 20260906082118 | 76 | 219 | 0.9 | 0.9 | 0.00 | 0.00 | 0.00 | 80 | 1013.5 |
| 20260906081614 | 76 | 212 | 0.0 | 0.0 | 0.00 | 0.00 | 0.00 | 80 | 1013.6 |
| 20260906081108 | 76 | 213 | 0.0 | 0.0 | 0.00 | 0.00 | 0.00 | 79 | 1013.4 |
| 20260906080605 | 76 | 219 | 0.0 | 0.0 | 0.00 | 0.00 | 0.00 | 79 | 1013.3 |
| 20260906075601 | 76 | 186 | 2.6 | 2.6 | 0.00 | 0.00 | 0.00 | 78 | 1013.5 |
| 20260906075055 | 77 | 221 | 2.6 | 3.5 | 0.00 | 0.00 | 0.00 | 77 | 1013.3 |
| 20260906074550 | 77 | 169 | 3.5 | 3.5 | 0.00 | 0.00 | 0.00 | 75 | 1013.4 |
| 20260906074049 | 77 | 187 | 0.9 | 0.9 | 0.00 | 0.00 | 0.00 | 75 | 1013.5 |
| 20260906073544 | 77 | 191 | 1.7 | 1.7 | 0.00 | 0.00 | 0.00 | 75 | 1013.7 |
| 20260906073040 | 77 | 195 | 0.0 | 0.0 | 0.00 | 0.00 | 0.00 | 75 | 1013.5 |
| 20260906072535 | 77 | 220 | 1.7 | 1.7 | 0.00 | 0.00 | 0.00 | 75 | 1013.7 |
| 20260906072031 | 77 | 207 | 0.9 | 0.9 | 0.00 | 0.00 | 0.00 | 74 | 1013.5 |
| 20260906071527 | 78 | 213 | 1.7 | 1.7 | 0.00 | 0.00 | 0.00 | 73 | 1013.6 |
| 20260906071022 | 78 | 196 | 0.9 | 0.9 | 0.00 | 0.00 | 0.00 | 73 | 1013.7 |
| 20260906070518 | 78 | 207 | 1.7 | 1.7 | 0.00 | 0.00 | 0.00 | 72 | 1013.6 |
| 20260906070014 | 78 | 193 | 0.9 | 0.9 | 0.00 | 0.00 | 0.00 | 72 | 1013.6 |
| 20260906065513 | 78 | 178 | 1.7 | 0.9 | 0.00 | 0.00 | 0.00 | 72 | 1013.8 |
| 20260906065009 | 78 | 202 | 0.0 | 0.0 | 0.00 | 0.00 | 0.00 | 72 | 1013.7 |
| 20260906064505 | 79 | 206 | 0.9 | 0.9 | 0.00 | 0.00 | 0.00 | 71 | 1013.6 |
| 20260906064000 | 79 | 200 | 2.6 | 2.6 | 0.00 | 0.00 | 0.00 | 71 | 1013.6 |
| 20260906063456 | 79 | 230 | 1.7 | 1.7 | 0.00 | 0.00 | 0.00 | 70 | 1013.7 |
| 20260906062955 | 79 | 130 | 2.6 | 2.6 | 0.00 | 0.00 | 0.00 | 69 | 1013.6 |
| 20260906062450 | 80 | 188 | 1.7 | 1.7 | 0.00 | 0.00 | 0.00 | 69 | 1013.5 |
| 20260906061945 | 80 | 187 | 1.7 | 1.7 | 0.00 | 0.00 | 0.00 | 70 | 1013.7 |
| 20260906061442 | 80 | 206 | 1.7 | 2.6 | 0.00 | 0.00 | 0.00 | 72 | 1013.8 |
| 20260906060941 | 80 | 174 | 1.7 | 1.7 | 0.00 | 0.00 | 0.00 | 73 | 1014.0 |
| 20260906060438 | 79 | 189 | 1.7 | 3.5 | 0.00 | 0.00 | 0.00 | 74 | 1014.2 |
| 20260906055935 | 79 | 185 | 1.7 | 1.7 | 0.00 | 0.00 | 0.00 | 76 | 1014.3 |
| 20260906055431 | 78 | 187 | 1.7 | 1.7 | 0.00 | 0.00 | 0.00 | 78 | 1014.5 |
| 20260906054926 | 78 | 155 | 0.9 | 0.9 | 0.00 | 0.00 | 0.00 | 77 | 1014.5 |
| 20260906054420 | 78 | 156 | 0.0 | 0.0 | 0.00 | 0.00 | 0.00 | 78 | 1014.5 |
| 20260906053916 | 78 | 71 | 1.7 | 1.7 | 0.00 | 0.00 | 0.00 | 78 | 1014.4 |
| 20260906053412 | 78 | 198 | 0.9 | 0.9 | 0.00 | 0.00 | 0.00 | 77 | 1014.4 |
| 20260906052908 | 78 | 200 | 0.9 | 0.9 | 0.00 | 0.00 | 0.00 | 77 | 1014.6 |
| 20260906052404 | 79 | 170 | 0.9 | 0.9 | 0.00 | 0.00 | 0.00 | 76 | 1014.4 |
| 20260906051901 | 79 | 142 | 0.0 | 0.0 | 0.00 | 0.00 | 0.00 | 75 | 1014.7 |
| 20260906051400 | 79 | 148 | 0.0 | 0.0 | 0.00 | 0.00 | 0.00 | 75 | 1014.4 |
| 20260906050856 | 79 | 152 | 0.0 | 0.0 | 0.00 | 0.00 | 0.00 | 75 | 1014.4 |
| 20260906050351 | 79 | 148 | 0.9 | 0.9 | 0.00 | 0.00 | 0.00 | 74 | 1014.2 |
| 20260906045850 | 79 | 147 | 0.9 | 0.9 | 0.00 | 0.01 | 0.01 | 75 | 1014.6 |
| 20260906045349 | 79 | 149 | 0.0 | 0.0 | 0.00 | 0.01 | 0.01 | 77 | 1014.3 |
| 20260906044846 | 79 | 95 | 3.5 | 3.5 | 0.00 | 0.01 | 0.01 | 77 | 1014.7 |
| 20260906044346 | 79 | 125 | 1.7 | 2.6 | 0.00 | 0.01 | 0.01 | 79 | 1014.7 |
| 20260906043841 | 79 | 171 | 0.9 | 0.9 | 0.00 | 0.01 | 0.01 | 80 | 1014.6 |
| 20260906043337 | 80 | 93 | 2.6 | 2.6 | 0.00 | 0.01 | 0.01 | 79 | 1014.6 |
| 20260906042832 | 80 | 122 | 0.9 | 0.9 | 0.00 | 0.01 | 0.01 | 80 | 1014.5 |
| 20260906042331 | 80 | 145 | 0.9 | 0.9 | 0.00 | 0.01 | 0.01 | 80 | 1014.4 |
| 20260906041827 | 80 | 146 | 1.7 | 1.7 | 0.00 | 0.01 | 0.01 | 79 | 1014.0 |
| 20260906041322 | 80 | 181 | 0.0 | 0.0 | 0.00 | 0.01 | 0.01 | 79 | 1013.8 |
| 20260906040823 | 80 | 143 | 0.9 | 0.9 | 0.00 | 0.01 | 0.01 | 79 | 1014.1 |
| 20260906040318 | 81 | 143 | 1.7 | 1.7 | 0.00 | 0.01 | 0.01 | 78 | 1013.9 |
| 20260906035813 | 80 | 134 | 1.7 | 1.7 | 0.00 | 0.01 | 0.01 | 77 | 1013.8 |
| 20260906035308 | 81 | 165 | 0.9 | 0.9 | 0.00 | 0.01 | 0.01 | 76 | 1013.9 |
| 20260906034804 | 81 | 155 | 0.0 | 0.0 | 0.00 | 0.01 | 0.01 | 76 | 1013.9 |
| 20260906034304 | 80 | 106 | 1.7 | 1.7 | 0.00 | 0.01 | 0.01 | 76 | 1013.8 |
| 20260906033759 | 80 | 121 | 1.7 | 0.9 | 0.00 | 0.01 | 0.01 | 77 | 1014.1 |
| 20260906033259 | 80 | 110 | 1.7 | 1.7 | 0.00 | 0.01 | 0.01 | 77 | 1014.1 |
| 20260906032756 | 81 | 86 | 2.6 | 1.7 | 0.00 | 0.01 | 0.01 | 76 | 1014.0 |
| 20260906032256 | 80 | 133 | 2.6 | 2.6 | 0.00 | 0.01 | 0.01 | 76 | 1014.1 |
| 20260906031751 | 80 | 141 | 0.9 | 0.9 | 0.00 | 0.01 | 0.01 | 78 | 1014.1 |
| 20260906031247 | 78 | 66 | 1.7 | 1.7 | 0.00 | 0.01 | 0.01 | 82 | 1013.8 |
| 20260906030746 | 79 | 2 | 3.5 | 6.1 | 0.00 | 0.01 | 0.01 | 85 | 1014.0 |
| 20260906030242 | 80 | 151 | 0.9 | 0.9 | 0.00 | 0.01 | 0.01 | 83 | 1013.6 |
| 20260906025741 | 80 | 161 | 0.0 | 0.0 | 0.00 | 0.01 | 0.01 | 83 | 1013.4 |
| 20260906025235 | 80 | 161 | 0.0 | 0.0 | 0.00 | 0.01 | 0.01 | 83 | 1013.3 |
| 20260906024734 | 81 | 153 | 0.9 | 0.9 | 0.00 | 0.01 | 0.01 | 81 | 1013.3 |
| 20260906024233 | 81 | 165 | 0.0 | 0.0 | 0.00 | 0.01 | 0.01 | 80 | 1013.1 |
| 20260906023729 | 81 | 225 | 0.9 | 0.9 | 0.00 | 0.01 | 0.01 | 80 | 1013.1 |
| 20260906023225 | 81 | 208 | 0.9 | 0.9 | 0.00 | 0.01 | 0.01 | 78 | 1012.9 |
| 20260906022720 | 81 | 208 | 0.0 | 0.0 | 0.00 | 0.01 | 0.01 | 81 | 1012.8 |
| 20260906022215 | 81 | 207 | 0.9 | 0.9 | 0.00 | 0.01 | 0.01 | 79 | 1012.5 |
| 20260906021711 | 81 | 206 | 0.0 | 0.0 | 0.00 | 0.01 | 0.01 | 77 | 1012.6 |
| 20260906021210 | 82 | 206 | 0.0 | 0.0 | 0.00 | 0.01 | 0.01 | 77 | 1013.0 |
| 20260906020705 | 83 | 239 | 1.7 | 0.9 | 0.07 | 0.01 | 0.01 | 74 | 1013.0 |
| 20260906020159 | 84 | 240 | 0.9 | 0.9 | 0.07 | 0.01 | 0.01 | 67 | 1012.9 |
| 20260906015654 | 84 | 231 | 0.0 | 0.0 | 0.00 | 0.00 | 0.00 | 67 | 1012.9 |
| 20260906015153 | 84 | 234 | 0.9 | 0.9 | 0.00 | 0.00 | 0.00 | 67 | 1012.7 |
| 20260906014652 | 83 | 230 | 0.9 | 0.9 | 0.00 | 0.00 | 0.00 | 68 | 1012.7 |
| 20260906014149 | 82 | 232 | 0.9 | 0.9 | 0.00 | 0.00 | 0.00 | 71 | 1012.9 |
| 20260906013644 | 82 | 7 | 3.5 | 2.6 | 0.00 | 0.00 | 0.00 | 78 | 1012.8 |
| 20260906013140 | 82 | 228 | 0.9 | 0.9 | 0.00 | 0.00 | 0.00 | 81 | 1012.7 |
| 20260906012640 | 82 | 198 | 1.7 | 0.9 | 0.00 | 0.00 | 0.00 | 77 | 1012.6 |
| 20260906012140 | 82 | 179 | 0.0 | 0.0 | 0.00 | 0.00 | 0.00 | 77 | 1012.5 |
| 20260906011636 | 82 | 177 | 0.9 | 0.9 | 0.00 | 0.00 | 0.00 | 76 | 1012.4 |
| 20260906011130 | 83 | 172 | 0.0 | 0.0 | 0.00 | 0.00 | 0.00 | 71 | 1012.6 |
| 20260906010626 | 85 | 164 | 0.9 | 0.9 | 0.00 | 0.00 | 0.00 | 71 | 1012.4 |
| 20260906010122 | 85 | 153 | 0.0 | 0.0 | 0.00 | 0.00 | 0.00 | 62 | 1012.2 |
| 20260906005621 | 85 | 138 | 0.9 | 0.9 | 0.00 | 0.00 | 0.00 | 62 | 1012.4 |
| 20260906005121 | 85 | 176 | 0.9 | 0.9 | 0.00 | 0.00 | 0.00 | 63 | 1012.4 |
| 20260906004620 | 85 | 158 | 0.0 | 0.9 | 0.00 | 0.00 | 0.00 | 63 | 1012.3 |
| 20260906004115 | 85 | 154 | 0.0 | 0.0 | 0.00 | 0.00 | 0.00 | 63 | 1012.4 |
| 20260906003610 | 86 | 159 | 0.9 | 0.9 | 0.00 | 0.00 | 0.00 | 65 | 1012.6 |
| 20260906003107 | 87 | 172 | 0.9 | 0.9 | 0.00 | 0.00 | 0.00 | 62 | 1012.7 |
| 20260906002607 | 88 | 139 | 0.9 | 1.7 | 0.00 | 0.00 | 0.00 | 59 | 1013.2 |
| 20260906002102 | 89 | 102 | 3.5 | 6.1 | 0.00 | 0.00 | 0.00 | 54 | 1012.9 |
| 20260906001557 | 90 | 122 | 6.1 | 7.0 | 0.00 | 0.00 | 0.00 | 55 | 1013.0 |
| 20260906001057 | 91 | 99 | 3.5 | 7.0 | 0.00 | 0.00 | 0.00 | 54 | 1012.9 |
| 20260906000553 | 91 | 140 | 3.5 | 3.5 | 0.00 | 0.00 | 0.00 | 54 | 1012.6 |
| 20260906000048 | 93 | 101 | 1.7 | 1.7 | 0.00 | 0.00 | 0.00 | 53 | 1012.7 |
| 20260905235547 | 95 | 116 | 5.2 | 7.8 | 0.00 | 0.00 | 0.00 | 50 | 1012.3 |
| 20260905235042 | 96 | 135 | 1.7 | 1.7 | 0.00 | 0.00 | 0.00 | 46 | 1012.4 |
| 20260905234537 | 96 | 138 | 0.0 | 0.0 | 0.00 | 0.00 | 0.00 | 45 | 1012.5 |
| 20260905234032 | 97 | 227 | 0.9 | 0.9 | 0.00 | 0.00 | 0.00 | 44 | 1012.4 |
| 20260905233527 | 98 | 224 | 0.9 | 0.9 | 0.00 | 0.00 | 0.00 | 43 | 1012.0 |
| 20260905233027 | 98 | 236 | 1.7 | 1.7 | 0.00 | 0.00 | 0.00 | 43 | 1011.7 |
| 20260905232522 | 98 | 229 | 0.9 | 0.9 | 0.00 | 0.00 | 0.00 | 42 | 1011.8 |
| 20260905232018 | 99 | 200 | 0.9 | 0.9 | 0.00 | 0.00 | 0.00 | 42 | 1012.0 |
| 20260905231513 | 98 | 251 | 0.9 | 0.9 | 0.00 | 0.00 | 0.00 | 41 | 1011.9 |
| 20260905231009 | 99 | 216 | 1.7 | 1.7 | 0.00 | 0.00 | 0.00 | 41 | 1011.5 |
| 20260905230508 | 99 | 266 | 1.7 | 1.7 | 0.00 | 0.00 | 0.00 | 41 | 1011.8 |
| 20260905230007 | 99 | 295 | 1.7 | 2.6 | 0.00 | 0.00 | 0.00 | 41 | 1011.7 |
| 20260905225501 | 99 | 248 | 1.7 | 1.7 | 0.00 | 0.00 | 0.00 | 41 | 1012.1 |
| 20260905224956 | 98 | 230 | 0.9 | 0.9 | 0.00 | 0.00 | 0.00 | 41 | 1011.9 |
| 20260905224452 | 99 | 359 | 1.7 | 1.7 | 0.00 | 0.00 | 0.00 | 41 | 1011.8 |
| 20260905223951 | 99 | 229 | 1.7 | 1.7 | 0.00 | 0.00 | 0.00 | 40 | 1011.9 |
| 20260905223449 | 99 | 282 | 1.7 | 1.7 | 0.00 | 0.00 | 0.00 | 39 | 1012.0 |
| 20260905222944 | 100 | 238 | 2.6 | 2.6 | 0.00 | 0.00 | 0.00 | 39 | 1011.8 |
| 20260905222443 | 99 | 228 | 0.9 | 0.9 | 0.00 | 0.00 | 0.00 | 39 | 1011.9 |
| 20260905221939 | 100 | 273 | 4.3 | 6.1 | 0.00 | 0.00 | 0.00 | 38 | 1011.9 |
| 20260905221436 | 100 | 352 | 4.3 | 6.1 | 0.00 | 0.00 | 0.00 | 37 | 1011.8 |
| 20260905220932 | 101 | 251 | 2.6 | 3.5 | 0.00 | 0.00 | 0.00 | 37 | 1011.9 |
| 20260905220427 | 102 | 289 | 2.6 | 2.6 | 0.00 | 0.00 | 0.00 | 37 | 1011.8 |
| 20260905215926 | 101 | 232 | 1.7 | 0.9 | 0.00 | 0.00 | 0.00 | 37 | 1011.7 |
| 20260905215422 | 100 | 347 | 2.6 | 2.6 | 0.00 | 0.00 | 0.00 | 37 | 1011.7 |
| 20260905214918 | 101 | 223 | 0.9 | 0.9 | 0.00 | 0.00 | 0.00 | 37 | 1011.8 |
| 20260905214414 | 101 | 237 | 2.6 | 2.6 | 0.00 | 0.00 | 0.00 | 38 | 1011.8 |
| 20260905213914 | 101 | 48 | 1.7 | 1.7 | 0.00 | 0.00 | 0.00 | 38 | 1011.8 |
| 20260905213410 | 102 | 285 | 2.6 | 2.6 | 0.00 | 0.00 | 0.00 | 37 | 1011.8 |
| 20260905212905 | 102 | 218 | 1.7 | 0.9 | 0.00 | 0.00 | 0.00 | 37 | 1011.9 |
| 20260905212400 | 102 | 265 | 1.7 | 1.7 | 0.00 | 0.00 | 0.00 | 36 | 1011.9 |
| 20260905211859 | 101 | 223 | 1.7 | 1.7 | 0.00 | 0.00 | 0.00 | 37 | 1011.9 |
| 20260905211355 | 100 | 224 | 1.7 | 1.7 | 0.00 | 0.00 | 0.00 | 39 | 1012.0 |
| 20260905210851 | 101 | 242 | 4.3 | 5.2 | 0.00 | 0.00 | 0.00 | 38 | 1012.1 |
| 20260905210351 | 101 | 219 | 1.7 | 1.7 | 0.00 | 0.00 | 0.00 | 38 | 1012.2 |
| 20260905205850 | 101 | 230 | 1.7 | 1.7 | 0.00 | 0.00 | 0.00 | 38 | 1012.3 |
| 20260905205345 | 101 | 268 | 7.8 | 8.7 | 0.00 | 0.00 | 0.00 | 38 | 1012.4 |
| 20260905204844 | 101 | 346 | 4.3 | 3.5 | 0.00 | 0.00 | 0.00 | 39 | 1012.5 |
| 20260905204341 | 101 | 296 | 3.5 | 5.2 | 0.00 | 0.00 | 0.00 | 38 | 1012.4 |
| 20260905203839 | 101 | 281 | 0.9 | 1.7 | 0.00 | 0.00 | 0.00 | 38 | 1012.3 |
| 20260905203335 | 101 | 284 | 1.7 | 1.7 | 0.00 | 0.00 | 0.00 | 38 | 1012.6 |
| 20260905202831 | 101 | 316 | 3.5 | 3.5 | 0.00 | 0.00 | 0.00 | 37 | 1012.6 |
| 20260905202325 | 100 | 233 | 1.7 | 0.9 | 0.00 | 0.00 | 0.00 | 39 | 1012.7 |
| 20260905201821 | 101 | 354 | 8.7 | 9.6 | 0.00 | 0.00 | 0.00 | 38 | 1012.6 |
| 20260905201317 | 100 | 254 | 1.7 | 1.7 | 0.00 | 0.00 | 0.00 | 38 | 1012.8 |
| 20260905200816 | 101 | 267 | 2.6 | 3.5 | 0.00 | 0.00 | 0.00 | 37 | 1012.9 |
| 20260905200313 | 100 | 318 | 2.6 | 3.5 | 0.00 | 0.00 | 0.00 | 38 | 1013.0 |
| 20260905195810 | 101 | 265 | 3.5 | 6.1 | 0.00 | 0.00 | 0.00 | 38 | 1013.2 |
| 20260905195307 | 100 | 268 | 1.7 | 1.7 | 0.00 | 0.00 | 0.00 | 39 | 1013.2 |
| 20260905194801 | 101 | 307 | 2.6 | 2.6 | 0.00 | 0.00 | 0.00 | 38 | 1013.4 |
| 20260905194301 | 101 | 343 | 3.5 | 5.2 | 0.00 | 0.00 | 0.00 | 39 | 1013.2 |
| 20260905193800 | 101 | 222 | 2.6 | 2.6 | 0.00 | 0.00 | 0.00 | 38 | 1013.3 |
| 20260905193255 | 100 | 276 | 3.5 | 3.5 | 0.00 | 0.00 | 0.00 | 39 | 1013.4 |
| 20260905192750 | 100 | 236 | 2.6 | 2.6 | 0.00 | 0.00 | 0.00 | 40 | 1013.5 |
| 20260905192247 | 101 | 286 | 2.6 | 2.6 | 0.00 | 0.00 | 0.00 | 38 | 1013.5 |
| 20260905191746 | 101 | 327 | 2.6 | 2.6 | 0.00 | 0.00 | 0.00 | 39 | 1013.5 |
| 20260905191244 | 99 | 195 | 0.9 | 0.9 | 0.00 | 0.00 | 0.00 | 41 | 1013.4 |
| 20260905190743 | 98 | 186 | 0.0 | 0.0 | 0.00 | 0.00 | 0.00 | 43 | 1013.7 |
| 20260905190242 | 98 | 148 | 0.9 | 0.9 | 0.00 | 0.00 | 0.00 | 43 | 1013.7 |
| 20260905185736 | 99 | 331 | 3.5 | 3.5 | 0.00 | 0.00 | 0.00 | 43 | 1013.7 |
| 20260905185231 | 101 | 217 | 1.7 | 1.7 | 0.00 | 0.00 | 0.00 | 41 | 1013.7 |
| 20260905184731 | 100 | 221 | 1.7 | 1.7 | 0.00 | 0.00 | 0.00 | 41 | 1014.0 |
| 20260905184230 | 99 | 246 | 2.6 | 2.6 | 0.00 | 0.00 | 0.00 | 42 | 1013.9 |
| 20260905183729 | 98 | 239 | 3.5 | 3.5 | 0.00 | 0.00 | 0.00 | 43 | 1014.0 |
| 20260905183225 | 99 | 218 | 1.7 | 1.7 | 0.00 | 0.00 | 0.00 | 43 | 1014.1 |
| 20260905182725 | 100 | 286 | 5.2 | 7.0 | 0.00 | 0.00 | 0.00 | 42 | 1014.4 |
| 20260905182224 | 99 | 273 | 0.9 | 1.7 | 0.00 | 0.00 | 0.00 | 42 | 1014.5 |
| 20260905181720 | 100 | 258 | 3.5 | 6.1 | 0.00 | 0.00 | 0.00 | 40 | 1014.6 |
| 20260905181218 | 99 | 221 | 1.7 | 1.7 | 0.00 | 0.00 | 0.00 | 42 | 1014.4 |
| 20260905180713 | 99 | 265 | 1.7 | 1.7 | 0.00 | 0.00 | 0.00 | 42 | 1014.6 |
| 20260905180209 | 99 | 303 | 5.2 | 6.1 | 0.00 | 0.00 | 0.00 | 42 | 1014.4 |
| 20260905175708 | 99 | 196 | 1.7 | 1.7 | 0.00 | 0.00 | 0.00 | 42 | 1014.6 |
| 20260905175203 | 98 | 226 | 1.7 | 1.7 | 0.00 | 0.00 | 0.00 | 42 | 1014.7 |
| 20260905174659 | 99 | 245 | 1.7 | 2.6 | 0.00 | 0.00 | 0.00 | 44 | 1014.7 |
| 20260905174154 | 99 | 325 | 4.3 | 5.2 | 0.00 | 0.00 | 0.00 | 45 | 1014.8 |
| 20260905173650 | 98 | 227 | 2.6 | 2.6 | 0.00 | 0.00 | 0.00 | 46 | 1015.0 |
| 20260905173146 | 97 | 173 | 0.9 | 0.9 | 0.00 | 0.00 | 0.00 | 51 | 1014.9 |
| 20260905172645 | 97 | 210 | 4.3 | 3.5 | 0.00 | 0.00 | 0.00 | 49 | 1014.9 |
| 20260905172139 | 97 | 273 | 1.7 | 1.7 | 0.00 | 0.00 | 0.00 | 48 | 1015.0 |
| 20260905171635 | 98 | 272 | 2.6 | 2.6 | 0.00 | 0.00 | 0.00 | 48 | 1015.0 |
| 20260905171131 | 97 | 186 | 0.9 | 0.9 | 0.00 | 0.00 | 0.00 | 50 | 1015.3 |
| 20260905170628 | 95 | 176 | 0.9 | 0.9 | 0.00 | 0.00 | 0.00 | 53 | 1015.1 |
| 20260905170123 | 96 | 191 | 1.7 | 2.6 | 0.00 | 0.00 | 0.00 | 52 | 1015.2 |
| 20260905165617 | 95 | 135 | 0.9 | 1.7 | 0.00 | 0.00 | 0.00 | 52 | 1015.3 |
| 20260905165113 | 95 | 253 | 2.6 | 2.6 | 0.00 | 0.00 | 0.00 | 52 | 1015.2 |
| 20260905164608 | 96 | 358 | 3.5 | 2.6 | 0.00 | 0.00 | 0.00 | 51 | 1015.4 |
| 20260905164107 | 96 | 230 | 1.7 | 1.7 | 0.00 | 0.00 | 0.00 | 52 | 1015.5 |
| 20260905163603 | 95 | 186 | 0.9 | 1.7 | 0.00 | 0.00 | 0.00 | 54 | 1015.4 |
| 20260905163059 | 94 | 171 | 0.9 | 0.9 | 0.00 | 0.00 | 0.00 | 53 | 1015.6 |
| 20260905162555 | 93 | 264 | 1.7 | 1.7 | 0.00 | 0.00 | 0.00 | 55 | 1015.6 |
| 20260905162054 | 94 | 232 | 2.6 | 2.6 | 0.00 | 0.00 | 0.00 | 54 | 1015.7 |
| 20260905161549 | 93 | 234 | 2.6 | 2.6 | 0.00 | 0.00 | 0.00 | 54 | 1015.6 |
| 20260905161047 | 93 | 249 | 2.6 | 3.5 | 0.00 | 0.00 | 0.00 | 54 | 1015.8 |
| 20260905160546 | 93 | 161 | 0.9 | 0.9 | 0.00 | 0.00 | 0.00 | 58 | 1015.8 |
| 20260905160046 | 93 | 213 | 0.9 | 0.9 | 0.00 | 0.00 | 0.00 | 55 | 1016.0 |
| 20260905155545 | 92 | 175 | 0.9 | 0.9 | 0.00 | 0.00 | 0.00 | 57 | 1016.0 |
| 20260905155044 | 92 | 192 | 0.9 | 0.9 | 0.00 | 0.00 | 0.00 | 57 | 1015.9 |
| 20260905154539 | 91 | 235 | 1.7 | 1.7 | 0.00 | 0.00 | 0.00 | 57 | 1016.1 |
| 20260905154035 | 91 | 267 | 2.6 | 2.6 | 0.00 | 0.00 | 0.00 | 58 | 1016.0 |
| 20260905153531 | 90 | 246 | 1.7 | 1.7 | 0.00 | 0.00 | 0.00 | 60 | 1016.2 |
| 20260905153030 | 89 | 216 | 0.9 | 0.9 | 0.00 | 0.00 | 0.00 | 63 | 1016.5 |
| 20260905152525 | 89 | 216 | 0.9 | 0.9 | 0.00 | 0.00 | 0.00 | 63 | 1016.1 |
| 20260905152020 | 88 | 211 | 0.9 | 0.9 | 0.00 | 0.00 | 0.00 | 64 | 1016.1 |
| 20260905151516 | 88 | 178 | 1.7 | 1.7 | 0.00 | 0.00 | 0.00 | 65 | 1016.1 |
| 20260905151011 | 87 | 213 | 0.9 | 0.9 | 0.00 | 0.00 | 0.00 | 68 | 1016.4 |
| 20260905150506 | 85 | 213 | 0.9 | 0.9 | 0.00 | 0.00 | 0.00 | 70 | 1016.6 |
| 20260905150003 | 84 | 213 | 0.9 | 0.9 | 0.00 | 0.00 | 0.00 | 75 | 1016.0 |
| 20260905145457 | 83 | 233 | 0.9 | 0.9 | 0.00 | 0.00 | 0.00 | 76 | 1016.2 |
| 20260905144956 | 82 | 234 | 0.9 | 0.9 | 0.00 | 0.00 | 0.00 | 79 | 1016.4 |
| 20260905144452 | 82 | 237 | 0.0 | 0.0 | 0.00 | 0.00 | 0.00 | 80 | 1016.2 |
| 20260905143951 | 81 | 238 | 0.0 | 0.0 | 0.00 | 0.00 | 0.00 | 80 | 1016.5 |
| 20260905143450 | 81 | 238 | 0.9 | 0.9 | 0.00 | 0.00 | 0.00 | 81 | 1016.2 |
| 20260905142945 | 81 | 237 | 0.9 | 0.9 | 0.00 | 0.00 | 0.00 | 81 | 1016.4 |
| 20260905142443 | 80 | 238 | 0.0 | 0.0 | 0.00 | 0.00 | 0.00 | 82 | 1016.5 |
| 20260905141940 | 80 | 219 | 0.9 | 0.9 | 0.00 | 0.00 | 0.00 | 82 | 1016.5 |
| 20260905141440 | 80 | 217 | 0.9 | 0.9 | 0.00 | 0.00 | 0.00 | 83 | 1016.6 |
| 20260905140936 | 80 | 205 | 0.0 | 0.0 | 0.00 | 0.00 | 0.00 | 84 | 1016.5 |
| 20260905140431 | 80 | 206 | 0.0 | 0.0 | 0.00 | 0.00 | 0.00 | 85 | 1016.5 |
| 20260905135930 | 80 | 206 | 0.9 | 0.9 | 0.00 | 0.00 | 0.00 | 85 | 1016.5 |
| 20260905135426 | 80 | 160 | 0.9 | 0.9 | 0.00 | 0.00 | 0.00 | 85 | 1016.6 |
| 20260905134921 | 80 | 160 | 0.0 | 0.0 | 0.00 | 0.00 | 0.00 | 85 | 1016.6 |
| 20260905134420 | 80 | 160 | 0.0 | 0.0 | 0.00 | 0.00 | 0.00 | 84 | 1016.6 |
| 20260905133915 | 80 | 160 | 0.0 | 0.0 | 0.00 | 0.00 | 0.00 | 85 | 1016.6 |
| 20260905133414 | 79 | 160 | 0.0 | 0.0 | 0.00 | 0.00 | 0.00 | 85 | 1016.6 |
| 20260905132914 | 79 | 160 | 0.0 | 0.0 | 0.00 | 0.00 | 0.00 | 85 | 1016.7 |
| 20260905132410 | 79 | 160 | 0.0 | 0.0 | 0.00 | 0.00 | 0.00 | 85 | 1016.6 |
| 20260905131904 | 79 | 160 | 0.0 | 0.0 | 0.00 | 0.00 | 0.00 | 85 | 1016.5 |
| 20260905131400 | 79 | 160 | 0.0 | 0.0 | 0.00 | 0.00 | 0.00 | 85 | 1016.6 |
| 20260905130855 | 78 | 160 | 0.0 | 0.0 | 0.00 | 0.00 | 0.00 | 85 | 1016.7 |
| 20260905130354 | 78 | 160 | 0.9 | 0.9 | 0.00 | 0.00 | 0.00 | 85 | 1016.5 |
| 20260905125849 | 78 | 160 | 0.0 | 0.0 | 0.00 | 0.00 | 0.00 | 86 | 1016.7 |
| 20260905125344 | 78 | 160 | 0.9 | 0.0 | 0.00 | 0.00 | 0.00 | 86 | 1016.4 |
| 20260905124840 | 78 | 159 | 0.9 | 0.9 | 0.00 | 0.00 | 0.00 | 86 | 1016.6 |
| 20260905124336 | 78 | 159 | 0.0 | 0.0 | 0.00 | 0.00 | 0.00 | 86 | 1016.8 |
| 20260905123836 | 77 | 159 | 0.0 | 0.0 | 0.00 | 0.00 | 0.00 | 87 | 1016.8 |